GFSGL_700_rhum_132.txt.gz
RH
84 87 100 95 82 48 42 26 27 40 40 22 25 43 88 95 88 80 63 59 52 55 51 50 56 61 62 68 85 92 92 87 90 86 75 85 82 92 98 92 92 92 87
82 89 99 83 90 100 99 50 57 38 30 21 46 72 91 88 99 96 80 69 64 60 58 58 65 78 92 98 97 89 84 97 93 91 82 81 91 94 86 93 100 98 92
97 96 98 98 98 100 98 97 98 90 83 65 58 69 89 96 98 99 81 93 83 64 66 76 99 99 83 71 71 72 93 99 99 93 82 83 79 78 76 79 83 88 84
96 97 97 97 97 99 99 100 95 88 87 94 71 98 100 99 99 100 99 100 100 99 98 97 100 90 82 86 81 86 75 86 86 92 86 82 83 83 86 84 77 80 79
76 96 97 97 98 98 100 99 100 100 100 68 69 96 89 84 94 99 98 95 99 100 100 98 100 100 83 88 83 100 95 81 80 95 98 89 89 94 88 80 86 86 90
41 45 52 64 97 97 98 99 100 100 87 74 80 94 72 98 99 99 99 98 99 100 100 100 94 93 88 97 100 99 99 99 95 100 98 93 97 98 90 79 98 90 99
28 31 34 36 38 39 55 72 63 71 87 88 87 96 98 99 99 99 99 99 99 99 99 99 99 91 98 98 100 99 98 98 99 98 89 82 78 98 83 97 92 99 100
14 14 15 16 18 22 25 27 29 31 30 27 28 33 42 38 59 80 94 95 95 90 90 90 96 97 86 79 82 81 83 84 81 85 79 76 73 78 93 100 99 94 99
12 12 12 11 11 11 11 11 12 13 13 13 12 14 16 18 20 24 27 29 29 29 30 33 39 47 52 55 57 61 68 74 78 86 91 95 89 92 96 98 100 99 99
12 12 11 11 11 10 10 10 9 9 9 9 9 10 10 10 10 11 11 11 12 12 12 13 14 17 21 26 28 29 30 31 35 43 59 75 83 86 84 95 93 98 98
13 12 12 12 12 12 11 11 10 10 8 8 8 8 9 9 8 8 8 8 8 8 8 9 9 10 11 12 13 14 16 18 21 26 28 29 31 43 65 83 89 93 99
14 14 14 14 14 14 14 13 13 12 11 10 10 10 10 10 10 10 10 10 10 9 9 8 8 7 7 7 8 8 9 10 12 14 18 22 27 29 30 32 46 72 84
15 14 14 13 12 11 11 10 10 9 9 10 11 10 10 10 10 10 10 9 9 9 10 10 11 11 11 10 9 8 7 6 7 8 10 12 18 25 26 28 28 30 36
14 14 13 13 14 14 14 13 13 13 12 12 11 11 10 10 11 11 11 11 10 10 9 9 10 10 10 11 11 11 11 10 8 6 6 6 8 12 20 29 30 32 36
15 15 16 16 17 16 15 14 13 11 10 9 8 7 6 5 4 4 3 4 4 6 8 9 10 10 10 10 11 11 10 10 10 9 8 7 6 7 9 18 30 35 37
17 18 18 18 18 16 14 13 12 11 10 8 6 4 3 3 2 2 2 2 2 2 3 3 3 4 6 8 8 8 9 9 9 8 8 7 7 7 8 10 17 31 43
17 18 19 18 14 12 11 9 7 5 5 4 3 3 3 3 3 4 4 4 4 4 4 4 4 4 4 4 4 5 6 7 7 7 7 8 8 10 12 18 25 35 47
19 20 20 16 10 7 5 4 4 4 5 5 6 6 8 8 9 9 9 9 8 7 7 6 6 7 7 7 7 6 6 7 8 9 10 10 12 19 29 32 39 47 62
21 20 18 13 8 6 5 5 5 6 8 9 10 11 12 13 13 13 13 13 13 12 11 11 11 10 10 10 11 11 10 11 12 12 16 20 23 33 42 48 57 66 73
21 19 14 10 6 5 5 6 7 8 10 11 12 13 14 15 16 16 16 17 18 19 20 20 17 15 14 15 15 14 13 14 14 15 20 30 42 48 50 48 49 52 52
19 15 9 6 5 5 6 8 10 12 13 14 15 15 15 15 15 16 17 18 19 20 24 27 26 24 21 20 19 18 17 16 17 21 31 46 58 58 52 40 34 31 29
16 10 6 6 6 7 10 13 14 15 15 14 13 13 13 14 15 16 18 20 22 25 29 34 38 35 30 26 24 24 21 19 20 23 33 46 53 53 42 30 25 22 20
11 7 6 6 8 11 15 16 16 15 14 13 13 13 14 16 18 20 21 24 25 29 38 44 52 50 42 34 29 28 28 24 24 26 32 40 42 42 42 32 24 22 20
8 7 7 8 14 17 18 17 15 14 14 15 16 16 17 19 21 23 26 31 40 44 48 53 66 71 63 49 39 34 34 31 28 29 31 34 37 37 35 36 40 39 26
7 8 9 15 18 19 18 16 14 14 16 18 20 22 23 25 27 30 34 40 55 66 66 60 59 76 84 71 51 43 39 37 34 32 32 33 34 34 33 32 30 34 68
8 10 16 20 20 19 17 15 16 18 20 21 23 25 27 29 31 36 46 52 61 84 91 82 70 75 90 90 71 53 47 42 39 36 35 34 33 33 33 32 30 30 29

GFSGL_700_rhum_135.txt.gz
RH
91 85 81 94 99 79 83 98 63 48 36 29 22 18 27 22 18 29 74 100 99 72 76 52 49 53 45 40 41 44 49 55 59 57 72 82 83 86 82 85 94 94 93
94 95 91 85 84 91 93 100 98 77 40 31 28 32 27 24 59 30 55 79 90 89 98 76 99 71 47 47 51 53 57 55 70 77 83 86 92 88 84 90 95 98 98
87 96 100 95 97 94 94 97 98 100 100 100 83 74 62 55 54 68 83 78 79 98 94 94 73 57 55 60 69 68 72 74 85 80 96 93 90 97 95 92 95 96 89
42 76 92 96 95 97 99 98 100 100 100 100 91 70 80 68 100 100 99 100 100 100 94 100 66 95 92 84 78 70 89 77 92 88 100 98 99 97 90 93 87 89 86
32 37 49 92 97 96 96 97 98 99 99 100 100 100 96 98 100 82 85 85 88 100 100 89 100 97 100 96 98 92 98 87 100 100 100 94 85 100 92 75 80 77 81
13 13 16 26 41 87 92 96 98 98 98 99 99 100 100 99 99 93 78 78 95 99 99 99 99 99 99 100 100 100 98 100 100 98 83 100 95 99 98 100 93 79 99
12 11 11 11 11 12 18 28 48 54 62 80 92 94 86 82 86 82 86 88 86 98 97 96 93 92 98 98 99 89 100 100 100 100 98 100 99 92 97 100 100 98 89
11 11 11 10 10 10 10 10 10 11 12 13 19 25 29 28 30 32 28 45 61 64 77 84 90 93 93 96 94 98 99 94 96 97 98 98 98 95 92 85 77 77 82
12 12 11 11 11 10 10 10 10 10 9 9 9 9 9 10 11 11 11 12 14 18 20 22 24 27 28 31 33 34 37 42 50 56 59 66 73 77 79 82 90 93 86
13 13 13 13 12 12 12 11 12 12 12 13 12 11 11 9 8 7 7 7 8 8 8 8 9 10 11 11 12 14 14 17 18 21 24 26 27 33 40 56 68 75 82
14 14 14 13 11 11 11 11 11 12 12 12 11 9 8 8 8 9 9 10 10 10 10 9 8 8 7 7 7 8 8 8 10 11 12 12 12 13 18 21 25 26 39
14 14 13 13 14 14 14 14 13 13 12 12 11 9 8 7 7 6 7 7 7 7 8 8 8 9 9 10 10 10 9 8 7 7 7 7 8 9 11 13 15 18 24
13 14 15 16 16 16 16 15 14 13 12 11 11 10 9 9 8 8 7 7 6 6 6 6 7 7 7 8 8 9 9 9 9 10 10 10 8 7 7 7 8 11 14
16 16 17 17 17 17 17 16 15 14 13 12 11 10 9 8 7 6 6 5 4 4 4 4 4 4 4 5 6 7 9 9 10 10 10 10 10 10 10 8 7 7 8
15 16 16 18 19 19 18 17 16 15 14 13 12 11 9 8 8 7 6 5 4 3 3 3 2 2 2 2 2 2 3 4 7 9 9 10 10 10 10 10 9 8 8
18 21 22 22 23 22 20 17 15 13 10 8 8 7 6 6 5 5 4 4 3 3 3 3 3 3 2 2 2 2 2 2 2 3 4 6 8 9 9 9 9 9 10
26 28 27 25 24 21 18 15 11 9 7 6 5 5 5 5 6 6 7 6 5 5 5 5 5 5 6 6 6 5 4 4 3 3 3 4 4 6 8 9 11 12 15
30 29 25 23 21 16 10 8 6 6 5 6 6 6 6 7 7 8 8 9 9 9 9 9 10 10 10 10 10 10 9 7 6 6 6 6 5 6 8 9 14 17 28
32 30 25 22 17 11 6 5 6 7 8 9 10 11 11 11 10 10 10 10 10 10 11 12 13 13 14 14 14 13 12 10 9 9 10 10 10 10 13 18 23 28 33
34 32 27 22 15 7 6 6 8 9 11 13 13 13 13 12 11 11 11 11 11 11 11 12 13 14 15 17 17 16 15 14 14 14 14 14 14 15 19 30 43 48 46
36 30 23 17 9 6 6 6 7 9 12 14 14 14 13 13 14 14 15 15 15 16 16 16 16 16 18 20 22 24 22 20 18 18 17 17 18 21 31 46 53 50 45
36 23 16 10 7 6 6 7 10 12 14 15 14 13 12 12 13 14 15 17 19 21 21 22 23 22 21 21 26 31 34 31 26 23 21 20 20 24 35 45 48 41 34
28 17 11 7 6 7 9 12 16 17 16 15 13 12 12 14 16 17 17 18 20 23 26 28 30 32 33 31 35 42 45 42 34 28 28 25 26 29 35 40 40 37 32
18 11 8 7 8 10 14 18 19 18 16 14 13 13 15 17 19 20 20 23 26 28 32 37 41 48 55 49 47 60 69 59 43 36 34 31 30 31 34 36 37 35 36
11 8 8 8 10 17 20 20 19 18 15 14 15 16 20 23 23 23 26 29 31 34 39 47 56 72 81 75 64 63 83 79 54 44 41 37 36 35 35 36 35 33 32
9 9 9 11 18 21 21 20 19 16 16 16 18 22 27 28 26 27 30 32 33 38 45 54 69 95 100 92 84 73 80 91 68 53 47 42 39 37 36 36 35 34 33

GFSGL_700_rhum_138.txt.gz
RH
41 81 84 86 86 92 100 90 97 98 97 76 38 27 26 37 33 30 30 25 30 30 94 98 90 98 86 74 64 59 59 56 53 38 36 43 54 63 64 65 81 83 81
33 70 88 96 100 94 100 87 91 98 98 88 50 30 24 16 14 28 31 27 19 32 64 90 90 96 98 96 93 75 68 61 56 48 41 40 54 67 74 78 89 82 80
15 21 56 94 95 94 100 100 95 88 98 98 94 83 51 32 22 24 33 55 35 24 63 78 100 98 98 98 100 94 57 58 51 54 55 50 62 76 86 95 97 80 78
12 12 13 26 89 96 98 98 98 98 99 99 99 100 100 100 98 90 60 67 100 99 66 73 66 72 93 99 99 98 81 74 68 95 66 76 82 89 98 92 92 91 79
11 10 10 10 14 28 89 94 97 97 97 99 99 97 100 100 100 100 99 100 99 100 100 100 95 99 88 99 100 100 100 82 74 99 97 92 91 99 97 88 86 97 94
11 11 10 9 9 9 10 13 27 91 97 95 97 98 98 99 99 99 99 100 99 100 100 96 100 99 95 99 100 100 98 100 100 100 100 98 94 100 100 100 100 94 99
12 11 11 11 11 11 10 10 9 10 13 20 37 86 97 99 98 98 98 98 99 99 98 97 97 98 99 99 99 99 100 99 99 99 100 98 99 99 100 100 98 98 99
12 13 13 13 13 14 13 12 12 12 11 10 9 9 10 13 16 18 22 26 35 51 48 51 60 70 78 90 97 98 97 98 98 99 98 99 99 99 99 99 99 99 93
14 14 13 12 12 12 12 11 11 11 10 10 11 11 10 10 10 9 9 8 8 9 10 10 10 11 12 13 16 19 22 28 31 36 41 52 62 75 87 82 82 93 95
15 13 13 14 14 14 13 12 12 11 10 10 10 9 9 9 9 10 11 10 10 9 9 9 9 8 7 7 7 7 8 9 10 12 13 14 15 19 22 26 30 32 36
14 14 14 15 16 15 15 14 13 13 12 11 10 10 9 8 8 7 7 7 7 7 7 7 7 7 7 7 8 8 9 8 8 7 7 7 7 8 9 10 11 12 13
14 16 17 18 17 17 16 15 15 14 14 13 12 11 10 8 8 7 7 7 6 6 6 6 5 5 5 6 6 7 7 7 8 8 8 9 10 9 8 7 6 7 7
16 16 16 16 17 17 17 17 17 16 15 15 14 13 12 10 9 8 7 7 7 6 6 6 5 4 4 4 4 4 4 4 4 5 7 7 8 9 9 9 9 10 9
15 17 19 20 22 22 21 20 20 19 17 15 13 11 10 9 8 7 7 7 6 5 5 5 5 5 4 4 4 3 3 3 3 3 2 3 3 5 8 9 9 9 9
20 24 27 29 29 28 27 25 23 20 18 16 13 11 10 8 8 6 6 6 5 5 4 4 4 3 3 3 3 3 3 3 2 3 3 2 2 2 2 3 5 8 9
24 29 34 36 33 30 28 25 23 18 14 12 10 8 6 6 5 5 5 4 4 4 4 4 3 3 3 3 3 3 3 4 4 4 4 4 4 4 3 3 2 3 4
25 35 40 38 34 31 30 26 21 14 12 8 6 5 5 5 5 5 5 5 5 5 5 5 5 5 4 4 5 5 5 5 6 6 7 7 7 7 6 6 5 5 5
31 42 44 41 37 34 32 27 17 10 6 6 5 6 7 8 8 9 9 9 8 7 7 7 7 7 6 6 6 6 6 7 8 9 10 11 11 10 9 8 8 8 8
35 46 49 46 38 32 25 15 9 7 6 6 7 9 10 10 10 10 10 9 9 9 9 9 8 8 7 7 6 6 6 6 6 8 10 13 14 13 12 11 11 12 12
38 50 52 43 32 23 15 9 6 6 6 7 9 10 12 12 12 12 11 11 12 13 13 12 12 12 12 12 12 11 10 9 8 10 13 16 17 16 15 15 15 15 17
34 51 50 33 22 14 8 6 7 8 9 12 14 15 15 14 13 12 12 13 15 16 17 18 19 21 20 20 19 17 16 14 13 13 14 19 22 22 20 19 18 20 23
42 55 44 27 16 9 7 7 7 9 13 16 17 17 15 14 13 13 15 18 20 20 20 21 22 23 24 23 22 20 18 18 18 19 28 33 31 28 26 25 26 30 36
57 56 35 18 10 8 7 8 10 16 19 19 18 17 15 14 15 17 21 24 24 24 25 28 30 30 30 29 29 30 30 29 25 23 32 49 41 34 31 29 29 32 36
64 45 17 10 8 8 8 11 18 20 21 20 18 16 16 16 20 24 29 29 29 33 39 42 45 47 50 54 58 55 53 48 40 38 47 64 49 41 39 36 35 34 36
50 19 12 9 9 9 10 16 22 22 21 20 18 17 16 18 20 24 27 28 29 31 33 35 40 49 61 74 89 90 84 73 62 57 67 77 58 46 42 40 38 38 37
23 13 10 10 10 10 16 23 24 23 22 20 18 18 18 19 21 26 29 30 32 32 32 34 39 48 60 78 85 91 87 80 72 66 79 86 66 54 47 44 42 39 38

GFSGL_700_rhum_141.txt.gz
RH
12 12 42 56 77 71 80 77 65 77 80 99 99 100 98 72 69 65 56 49 44 31 20 25 40 96 99 97 99 99 99 86 68 54 56 50 43 44 47 53 58 62 61
11 10 12 25 83 78 87 86 85 94 76 88 98 99 100 76 72 61 50 46 41 31 24 24 21 29 83 85 99 100 100 92 78 51 59 63 50 48 51 56 60 64 67
11 10 10 10 19 49 94 96 98 82 65 75 85 86 100 79 74 55 45 43 40 36 32 36 53 54 91 100 85 100 98 98 87 69 67 61 60 58 56 57 63 70 75
11 10 10 10 9 10 25 81 97 100 96 96 98 98 98 65 44 40 39 37 37 33 32 48 88 90 91 97 100 98 100 100 99 92 94 91 80 71 60 59 64 70 81
12 11 11 11 11 10 10 9 23 88 95 96 96 96 98 99 100 100 100 98 100 100 86 77 93 100 100 100 95 89 95 95 99 99 99 100 92 70 68 67 81 85 89
12 13 13 12 12 12 12 12 11 10 23 47 78 96 100 96 97 97 98 98 99 100 99 100 100 100 100 100 100 98 99 100 98 98 95 94 98 76 97 95 98 100 96
14 14 13 12 11 10 11 12 12 12 12 11 11 15 33 63 74 84 96 97 97 97 99 98 99 99 99 100 100 100 100 100 100 100 100 100 100 98 93 97 100 100 99
15 14 13 12 12 12 12 11 11 11 10 10 10 10 11 10 10 9 9 12 12 22 40 52 61 67 60 62 74 90 97 99 99 99 100 99 100 100 97 99 100 98 98
15 14 13 14 14 14 13 13 12 11 10 9 9 9 9 9 8 8 8 8 9 9 9 8 8 9 10 10 12 14 16 22 34 42 56 81 82 88 96 98 99 99 99
15 14 15 16 16 15 14 14 14 14 13 12 10 9 9 8 8 7 7 6 6 6 6 7 9 10 9 10 9 9 9 7 7 8 9 12 14 18 20 22 27 33 40
14 16 17 17 17 16 16 16 16 16 15 14 13 12 11 10 9 9 8 8 7 7 6 6 5 5 5 5 6 6 6 7 7 7 8 8 8 7 7 8 10 10 11
17 16 16 17 18 20 20 19 19 19 18 16 14 13 13 12 12 11 10 9 9 8 7 6 6 6 5 4 4 4 4 4 4 4 4 5 6 7 7 8 8 8 8
16 19 22 25 26 27 27 26 24 22 20 18 17 16 15 13 12 11 11 10 9 8 8 7 6 5 4 4 4 4 4 4 4 3 3 3 3 3 3 4 6 7 7
20 25 28 32 33 32 30 28 26 24 22 20 18 16 15 14 12 11 9 8 8 6 6 5 5 4 4 3 3 3 3 3 3 3 3 3 3 3 3 2 2 3 3
23 27 35 38 37 34 32 30 29 26 24 22 19 17 15 14 12 10 9 8 7 6 5 4 4 4 4 3 3 3 3 3 2 2 2 2 2 2 2 2 2 2 2
21 30 41 42 40 38 35 34 32 28 24 20 18 14 12 10 9 8 6 6 5 4 4 4 4 4 4 4 4 4 4 4 4 4 4 4 4 4 4 4 4 4 4
22 35 45 48 48 42 36 33 28 25 22 17 11 8 7 6 5 5 5 4 4 5 5 4 4 4 5 5 5 5 5 5 5 5 5 5 5 5 5 6 6 7 7
23 36 48 54 53 47 41 37 31 23 16 10 8 6 6 5 5 6 7 7 8 8 8 8 8 8 7 7 7 6 6 6 6 6 6 5 5 5 6 7 9 10 10
22 32 47 58 57 49 41 37 29 19 12 8 6 6 6 7 8 9 10 11 11 11 10 10 9 9 10 10 9 9 8 8 8 8 8 8 8 8 8 8 11 13 14
21 29 48 62 60 48 37 30 19 11 7 6 6 6 6 8 12 13 13 13 12 11 11 11 12 12 13 13 12 11 11 12 12 12 11 11 10 10 10 12 15 17 18
19 27 52 65 61 44 33 22 11 7 7 6 7 8 10 13 15 15 14 14 13 13 14 15 16 17 17 17 17 18 18 17 16 14 13 12 11 11 14 18 26 27 24
17 26 60 69 52 32 21 11 8 7 7 8 11 15 17 18 17 16 15 15 15 16 18 19 22 24 25 25 25 24 23 21 20 19 19 17 16 17 19 27 35 34 30
16 35 72 64 34 22 12 9 8 8 10 14 18 20 20 19 18 17 16 16 16 18 21 24 25 27 28 28 28 28 30 31 31 30 28 26 25 25 28 40 44 38 33
18 65 74 39 22 13 10 9 9 10 14 19 21 22 21 20 18 18 17 18 19 22 25 28 30 31 30 31 34 38 48 56 62 63 56 49 44 41 55 66 52 43 37
56 79 48 23 12 11 10 10 10 15 21 24 24 23 22 20 20 19 20 20 23 27 31 33 33 32 32 35 42 50 64 74 82 79 71 63 59 60 78 73 55 47 42
83 55 26 14 12 11 11 12 17 24 26 26 25 24 23 22 22 23 24 25 29 34 36 35 35 34 38 47 59 70 87 92 89 80 72 67 64 74 91 74 60 52 47

GFSGL_700_rhum_144.txt.gz
RH
11 10 9 10 14 59 83 79 74 71 76 76 88 99 100 99 83 68 75 92 89 67 59 55 33 26 32 42 62 94 90 93 96 89 86 86 87 83 58 40 46 53 51
11 10 10 10 10 10 62 90 90 84 82 72 80 77 89 98 80 91 97 99 85 66 56 41 28 27 28 39 54 98 88 94 100 96 92 88 86 84 73 56 55 56 58
11 11 12 12 11 10 10 43 95 98 99 100 90 79 95 98 99 100 100 89 74 61 52 41 30 29 33 31 78 96 94 90 96 96 100 89 89 93 89 82 76 68 63
12 13 13 12 12 12 12 11 20 86 98 97 98 90 98 100 76 96 98 100 86 66 55 42 37 38 44 79 84 81 84 98 84 94 94 100 95 87 87 88 88 82 66
13 14 13 12 12 11 11 11 12 13 18 64 94 96 97 98 99 100 83 66 64 61 56 51 62 64 53 87 82 98 99 90 100 100 94 100 100 84 98 97 93 90 79
14 14 13 12 12 12 11 11 10 12 12 12 14 32 86 96 96 97 98 97 98 99 93 82 72 83 99 99 100 79 100 100 100 99 100 100 99 100 96 100 100 100 97
15 15 14 13 13 12 12 11 10 10 9 10 11 11 11 11 14 35 61 85 91 94 96 97 97 99 99 100 99 100 100 100 100 100 99 98 96 91 89 96 98 90 98
16 15 15 15 14 14 14 13 12 11 10 9 8 7 8 8 10 11 11 13 20 37 62 76 88 89 93 95 98 98 97 99 100 100 100 100 100 99 100 100 100 100 100
16 16 16 17 16 15 15 15 14 14 13 12 10 8 8 7 6 6 6 6 7 8 8 9 12 14 18 11 28 39 56 70 67 84 86 87 97 98 98 99 98 98 99
16 17 18 17 16 17 17 17 17 16 15 15 14 12 11 10 8 8 7 7 6 6 5 5 5 5 6 6 7 8 9 9 8 9 16 24 31 36 43 55 68 84 94
17 17 17 19 21 23 23 22 22 20 18 17 16 14 13 12 11 10 10 9 9 8 7 7 6 6 6 5 5 5 4 5 5 6 8 8 9 8 8 9 12 17 26
16 17 22 26 28 29 29 27 25 23 21 19 17 16 15 14 13 12 11 10 10 9 8 8 7 6 6 6 5 5 5 5 4 4 4 4 4 4 5 6 7 8 8
17 23 27 31 33 33 31 30 28 27 25 23 20 18 17 16 14 13 13 12 11 10 9 8 8 7 6 6 5 5 4 4 4 4 4 4 4 3 3 3 3 3 4
22 25 30 37 38 37 35 34 33 31 28 26 24 22 19 17 14 14 11 10 8 8 7 6 6 5 5 5 4 4 4 3 3 3 3 3 3 2 2 3 2 3 3
21 25 36 43 44 43 41 38 37 35 31 28 25 22 19 17 15 12 10 9 8 7 6 5 4 4 3 3 3 3 3 3 2 2 2 2 2 2 2 2 2 2 2
20 26 39 48 51 50 46 43 40 37 33 27 23 18 16 13 10 9 9 7 6 5 5 4 4 4 3 3 3 3 4 4 4 4 4 4 4 4 3 3 4 3 3
20 24 36 48 55 55 52 46 41 39 33 25 18 12 10 8 7 6 5 5 4 4 4 4 4 4 4 4 5 5 5 5 5 5 5 5 5 5 5 5 5 5 5
20 21 28 43 56 59 56 49 42 36 27 18 12 8 7 7 6 6 6 6 6 7 7 8 9 9 9 8 8 7 7 7 6 6 6 6 6 6 6 6 6 6 6
22 20 22 36 56 62 60 52 42 34 23 14 8 7 7 6 6 6 7 8 9 10 11 11 11 11 10 10 9 8 8 8 7 7 7 7 8 8 8 8 8 8 8
24 20 19 26 52 65 64 50 39 31 18 10 8 7 7 7 7 8 10 10 11 12 13 12 12 11 11 10 10 10 10 11 11 12 12 12 12 13 13 12 11 11 10
24 20 17 18 50 66 64 46 36 22 12 8 7 7 7 7 8 10 11 13 15 15 14 13 13 12 12 13 14 16 18 18 19 19 18 17 16 15 14 13 13 13 14
22 19 16 16 51 68 59 43 25 12 9 8 8 8 9 11 13 15 16 17 17 16 15 14 14 14 16 18 21 23 24 24 23 22 21 20 18 17 16 15 15 16 18
20 17 15 22 66 67 48 30 13 10 9 9 9 11 13 17 19 20 20 19 18 17 16 16 17 20 23 26 28 27 26 26 25 24 25 26 27 27 28 28 29 29 35
18 16 16 62 74 50 29 14 11 10 10 10 14 17 20 22 23 23 22 20 20 19 19 20 23 26 29 30 30 29 29 30 36 42 49 50 47 45 43 41 39 37 42
17 18 64 82 54 29 13 12 11 11 12 14 19 24 26 26 25 24 23 22 22 23 25 27 30 32 33 33 31 32 38 48 58 69 76 72 65 60 55 52 50 55 71
22 74 87 58 28 15 13 12 12 14 17 23 27 28 28 27 26 25 25 25 26 29 31 34 36 36 35 34 36 43 55 68 80 90 87 77 68 61 59 63 78 86 72

GFSGL_700_rhum_150.txt.gz
RH
20 16 14 12 11 10 9 9 9 20 55 74 71 76 84 74 81 66 88 100 100 100 100 100 100 100 93 69 84 87 90 96 88 72 52 38 28 69 92 91 97 95 70
19 16 14 12 12 11 10 9 9 10 33 41 78 80 91 97 98 99 94 98 99 99 100 98 99 99 99 88 93 99 90 97 87 64 60 77 77 61 56 91 99 99 76
20 16 14 13 12 11 11 10 10 9 9 12 24 67 80 89 95 98 98 98 95 94 98 98 98 99 99 99 100 99 95 97 87 78 90 91 98 91 100 99 100 84 100
20 15 14 14 12 12 12 12 10 9 8 8 10 30 62 76 95 96 97 98 98 97 98 98 98 99 98 99 94 78 85 60 92 68 68 97 99 96 90 100 100 98 97
20 16 15 14 13 13 13 13 12 11 9 8 7 8 26 55 72 68 93 97 97 98 98 96 90 86 90 72 65 56 49 42 39 37 40 52 72 95 100 95 98 100 99
19 15 15 14 14 15 15 15 14 13 12 11 9 7 6 6 12 48 58 42 95 96 97 100 100 91 63 57 54 52 50 44 40 39 46 64 71 79 99 98 100 94 100
18 15 16 15 16 16 16 16 17 16 15 14 13 11 9 8 7 6 6 8 12 32 34 47 64 92 98 98 98 91 63 44 47 54 55 74 94 100 94 100 99 99 99
16 16 16 16 18 18 18 20 20 20 19 17 16 15 13 11 9 9 8 6 5 6 7 10 17 23 44 50 77 97 99 97 97 93 93 100 100 98 99 100 100 100 100
16 17 16 17 18 20 23 25 25 24 23 21 19 17 16 14 12 11 10 9 8 7 6 6 5 5 9 23 41 21 32 55 79 94 97 98 98 96 98 99 99 99 99
18 17 17 17 20 26 27 28 28 27 26 25 24 22 20 17 16 14 12 11 10 9 8 7 6 6 5 5 5 5 5 8 13 23 49 67 72 90 96 98 98 98 99
20 18 19 21 26 29 30 31 31 31 31 30 28 26 23 21 19 17 15 13 12 11 10 8 7 6 6 6 5 5 5 4 4 4 4 6 10 9 11 28 36 49 66
37 30 20 24 29 34 35 36 36 36 35 33 31 29 27 25 22 19 17 16 14 12 11 10 9 8 7 6 5 5 5 4 4 4 4 4 4 4 4 4 6 7 8
53 22 22 28 36 42 44 44 42 41 38 36 34 31 30 28 25 22 19 16 15 13 11 9 8 8 7 6 5 5 4 4 4 3 3 3 4 3 3 3 4 4 4
32 20 22 29 41 46 48 49 47 45 42 39 37 35 33 32 27 23 20 17 15 12 10 9 9 7 5 5 4 4 4 4 4 3 3 3 3 3 3 3 2 3 3
20 20 20 26 36 44 50 50 50 49 47 44 41 40 38 35 30 25 18 14 13 12 10 8 6 6 6 5 4 4 4 4 3 3 3 3 3 3 3 3 2 2 2
22 20 20 21 24 28 33 43 49 50 49 48 46 44 42 36 27 21 16 12 10 8 8 7 6 6 5 4 4 4 4 4 4 4 4 4 4 3 3 3 3 3 3
24 23 22 22 21 21 21 24 29 39 49 50 49 47 44 36 25 16 12 10 9 7 6 6 5 5 5 4 4 4 4 5 4 4 5 5 5 5 5 5 5 4 4
28 28 27 26 25 23 21 19 19 28 48 54 51 49 42 31 21 14 10 8 7 6 6 6 6 6 7 7 7 7 6 7 7 7 7 7 6 6 6 6 6 5 5
31 33 32 30 28 24 22 19 18 23 43 59 58 49 37 26 16 11 9 8 7 7 6 7 8 9 10 11 11 12 12 11 10 9 9 9 8 8 7 7 7 6 6
35 36 35 33 30 25 22 19 19 23 44 63 60 46 31 21 12 9 8 8 8 8 9 10 11 12 13 14 14 14 14 13 13 12 11 11 11 11 10 10 9 9 8
34 35 34 32 28 24 20 19 20 29 59 66 58 41 23 15 11 9 8 9 9 10 12 13 15 17 17 17 16 16 15 15 16 17 15 15 17 16 16 16 16 14 14
31 30 29 27 24 21 19 21 22 56 73 62 45 28 16 11 10 9 10 11 13 14 17 19 20 20 19 18 18 17 17 18 21 21 20 24 25 24 22 22 20 20 19
25 24 24 27 25 20 28 26 44 79 70 50 30 18 12 10 11 12 14 17 20 22 24 24 23 22 21 20 20 20 20 22 26 26 27 28 28 29 30 29 29 28 28
86 82 86 46 21 33 29 44 83 78 54 30 18 12 11 12 13 16 20 24 26 27 27 26 26 25 24 24 24 27 29 31 32 32 33 33 36 37 38 41 42 40 38
26 77 33 22 28 27 57 87 83 58 29 16 12 12 13 15 19 24 28 30 30 30 29 29 28 28 28 30 32 35 37 36 36 38 42 48 51 49 45 42 41 41 43
58 23 24 30 37 83 92 84 54 25 14 13 14 15 17 22 28 33 34 34 33 33 33 32 32 32 34 37 40 41 40 39 41 47 49 48 45 42 42 46 51 57 63